Waarnemingen

Advertentie
Mijn weer
Charleroi/Gosselies, België (6449): temperatuur & dauwpunt: 09.12.2017 20:00:00 - 15.12.2017 20:00:00 (CET)Charleroi/Gosselies, België (6449): windsnelheid & windstoten: 09.12.2017 20:00:00 - 15.12.2017 20:00:00 (CET)Charleroi/Gosselies, België (6449): windrichting: 09.12.2017 20:00:00 - 15.12.2017 20:00:00 (CET)Charleroi/Gosselies, België (6449): luchtdruk: 09.12.2017 20:00:00 - 15.12.2017 20:00:00 (CET)Charleroi/Gosselies, België (6449): zicht: 09.12.2017 20:00:00 - 15.12.2017 20:00:00 (CET)
Datum & Tijd tt [°C] td [°C] ff [km/u] ff [kn] fx [km/u] fx [kn] dd ppp [hPa] vv [km]
15.12.2017 20:00:00 1,4 0,9 2 1 7 4 - 1000,1 4,5
15.12.2017 19:00:00 1,3 0,5 4 2 - - WZW 999,1 8
15.12.2017 18:00:00 1,2 0,5 4 2 11 6 ZZW 998,4 10
15.12.2017 17:00:00 1,3 0,6 5 3 14 8 Z 997,7 7
15.12.2017 16:00:00 1,6 0,9 7 4 - - WZW 997,0 7
15.12.2017 15:00:00 3,2 1,7 14 8 25 14 ZZW 996,3 7
15.12.2017 14:00:00 3,7 2,4 16 9 29 16 ZW 995,8 10
15.12.2017 13:00:00 3,8 2,3 18 10 - - ZW 995,6 10
15.12.2017 12:00:00 3,4 2,1 16 9 32 18 ZZW 995,7 10
15.12.2017 11:00:00 2,1 1,1 22 12 32 18 ZZW 995,9 10
15.12.2017 10:00:00 2,0 1,0 18 10 - - ZW 994,6 10
15.12.2017 09:00:00 2,1 1,3 18 10 25 14 ZW 994,3 9
15.12.2017 08:00:00 2,4 1,6 15 8 25 14 ZW 994,0 7
15.12.2017 07:00:00 2,6 1,5 15 8 - - ZZW 993,3 10
15.12.2017 06:00:00 2,8 1,3 11 6 25 14 ZZW 993,2 20
15.12.2017 05:00:00 2,8 1,4 16 9 29 16 ZZW 993,3 10
15.12.2017 04:00:00 2,6 1,5 21 11 - - ZW 993,2 10
15.12.2017 03:00:00 2,0 1,2 21 11 32 18 ZW 993,0 10
15.12.2017 02:00:00 1,8 0,7 22 12 32 18 ZW 992,5 10
15.12.2017 01:00:00 2,1 1,2 22 12 - - ZW 992,1 20
15.12.2017 00:00:00 2,3 1,2 22 12 36 19 WZW 992,0 20
14.12.2017 23:00:00 2,3 1,3 18 10 25 14 ZW 991,5 10
14.12.2017 22:00:00 1,5 0,8 14 8 - - WZW 991,8 6
14.12.2017 21:00:00 1,4 0,8 15 8 22 12 WZW 992,2 6
14.12.2017 20:00:00 0,5 0,0 11 6 43 23 WNW 992,5 4,0
14.12.2017 19:00:00 3,9 2,4 18 10 - - ZZW 991,8 10
14.12.2017 18:00:00 3,9 2,2 22 12 40 21 ZZW 992,3 20
14.12.2017 17:00:00 3,8 2,3 29 16 43 23 ZZW 993,4 20
14.12.2017 16:00:00 4,0 2,5 29 16 - - ZW 994,0 20
14.12.2017 15:00:00 2,6 1,9 14 8 36 19 ZZW 995,0 12
14.12.2017 14:00:00 2,2 1,3 18 10 43 23 WZW 996,2 10
14.12.2017 13:00:00 2,2 1,1 32 18 - - ZW 996,6 11
14.12.2017 12:00:00 2,0 1,2 28 15 54 29 ZW 997,2 6
14.12.2017 11:00:00 2,2 1,2 40 21 58 31 ZW 997,6 8
14.12.2017 10:00:00 2,1 1,0 32 18 - - ZW 997,2 7
14.12.2017 09:00:00 3,0 1,5 32 18 54 29 ZW 997,1 9
14.12.2017 08:00:00 3,6 1,4 29 16 43 23 ZW 996,7 20
14.12.2017 07:00:00 3,5 0,3 29 16 - - ZW 996,8 20
14.12.2017 06:00:00 3,0 -0,8 29 16 54 29 WZW 996,5 20
14.12.2017 05:00:00 3,0 -1,0 32 18 61 33 WZW 995,5 20
14.12.2017 04:00:00 3,5 0,3 36 19 - - WZW 993,9 20
14.12.2017 03:00:00 3,1 1,7 40 21 61 33 WZW 992,7 20
14.12.2017 02:00:00 2,6 1,6 47 25 72 39 WZW 991,9 9
14.12.2017 01:00:00 4,2 2,1 18 10 - - ZZW 992,2 20
14.12.2017 00:00:00 4,0 1,5 22 12 36 19 WZW 993,4 20
13.12.2017 23:00:00 5,3 3,7 18 10 40 21 W 992,9 20
13.12.2017 22:00:00 5,9 4,6 25 14 - - WZW 992,2 20
13.12.2017 21:00:00 6,9 6,6 39 21 65 35 WZW 991,5 2,5
13.12.2017 20:00:00 7,4 6,4 32 18 50 27 ZZW 991,5 6
13.12.2017 19:00:00 7,1 5,9 35 19 - - ZZW 993,4 10
13.12.2017 18:00:00 6,6 5,7 29 16 50 27 ZZW 995,6 8
13.12.2017 17:00:00 5,9 5,2 24 13 40 21 ZZW 997,8 6
13.12.2017 16:00:00 5,6 4,8 21 11 - - ZZW 999,1 9
13.12.2017 15:00:00 5,2 4,5 24 13 36 19 ZZW 1000,1 10
13.12.2017 14:00:00 4,7 3,9 22 12 43 23 ZZW 1001,3 15
13.12.2017 13:00:00 4,0 3,0 29 16 - - ZZW 1002,6 15
13.12.2017 12:00:00 3,4 2,5 31 17 58 31 ZZW 1003,5 10
13.12.2017 11:00:00 3,4 2,5 37 20 58 31 ZZW 1004,1 7
13.12.2017 10:00:00 3,3 2,1 34 18 - - ZZW 1004,6 10
13.12.2017 09:00:00 3,5 2,4 36 19 58 31 Z 1005,6 8
13.12.2017 08:00:00 3,3 2,0 31 17 54 29 Z 1007,1 8
13.12.2017 07:00:00 3,7 1,9 28 15 - - ZZW 1008,2 10
13.12.2017 06:00:00 3,2 1,7 25 14 50 27 ZZW 1009,3 20
13.12.2017 05:00:00 2,4 0,9 25 14 40 21 ZZW 1010,8 20
13.12.2017 04:00:00 2,1 0,8 22 12 - - ZZW 1011,9 10
13.12.2017 03:00:00 1,8 0,6 25 14 40 21 Z 1012,8 20
13.12.2017 02:00:00 1,5 0,0 18 10 29 16 Z 1013,2 20
13.12.2017 01:00:00 1,3 0,0 18 10 - - ZZW 1014,2 20
13.12.2017 00:00:00 1,1 -0,1 18 10 32 18 ZZW 1014,6 10
12.12.2017 23:00:00 0,9 -0,1 22 12 32 18 ZZW 1015,2 20
12.12.2017 22:00:00 1,1 -0,4 18 10 - - ZZW 1015,1 20
12.12.2017 21:00:00 1,5 0,2 14 8 25 14 ZZW 1015,1 12
12.12.2017 20:00:00 1,5 0,3 16 9 25 14 ZZW 1014,7 10
12.12.2017 19:00:00 1,5 0,2 11 6 - - ZZW 1014,4 12
12.12.2017 18:00:00 1,3 0,3 11 6 18 10 ZZW 1013,9 12
12.12.2017 17:00:00 1,9 0,6 11 6 22 12 ZW 1013,0 12
12.12.2017 16:00:00 2,1 0,9 11 6 - - WZW 1012,5 12
12.12.2017 15:00:00 2,2 0,8 18 10 32 18 WZW 1011,4 10
12.12.2017 14:00:00 1,9 0,6 21 11 36 19 ZW 1011,2 9
12.12.2017 13:00:00 1,5 0,6 25 14 - - WZW 1010,7 6
12.12.2017 12:00:00 0,4 -0,1 15 8 25 14 WZW 1010,1 2,5
12.12.2017 11:00:00 0,8 0,1 14 8 29 16 W 1009,2 3,8
12.12.2017 10:00:00 0,6 0,0 15 8 - - WZW 1008,0 3,0
12.12.2017 09:00:00 0,2 -0,3 18 10 25 14 WZW 1006,9 2,2
12.12.2017 08:00:00 0,5 -0,1 14 8 22 12 W 1005,3 4,0
12.12.2017 07:00:00 0,9 0,5 15 8 - - WZW 1004,0 7
12.12.2017 06:00:00 0,9 0,3 21 11 29 16 WZW 1002,6 10
12.12.2017 05:00:00 1,0 0,3 22 12 32 18 WZW 1000,6 15
12.12.2017 04:00:00 1,0 0,4 16 9 - - W 999,0 10
12.12.2017 03:00:00 0,9 0,3 14 8 32 18 W 997,2 15
12.12.2017 02:00:00 1,0 -0,1 15 8 29 16 W 994,8 10
12.12.2017 01:00:00 0,7 -0,4 14 8 - - WNW 993,0 15
12.12.2017 00:00:00 0,2 -1,0 18 10 32 18 WNW 990,8 10
11.12.2017 23:00:00 -0,1 -1,5 14 8 32 18 NW 988,1 9
11.12.2017 22:00:00 -0,4 -1,6 16 9 - - NW 985,8 9
11.12.2017 21:00:00 -0,5 -1,6 22 12 36 19 NNW 982,5 2,2
11.12.2017 20:00:00 0,3 -0,4 22 12 36 19 NNW 979,8 2,7
11.12.2017 19:00:00 5,7 4,3 22 12 - - ZZW 976,6 8
11.12.2017 18:00:00 5,7 4,6 25 14 36 19 Z 975,4 4,0
11.12.2017 17:00:00 6,3 5,1 16 9 36 19 Z 974,4 7
11.12.2017 16:00:00 7,2 5,0 18 10 - - Z 973,5 7
11.12.2017 15:00:00 8,1 4,8 18 10 36 19 Z 972,4 15
11.12.2017 14:00:00 4,3 3,9 11 6 29 16 O 973,5 5
11.12.2017 13:00:00 4,0 3,4 15 8 - - O 973,7 5
11.12.2017 12:00:00 2,4 2,0 26 14 40 21 ONO 974,7 4,0
11.12.2017 11:00:00 2,4 2,0 22 12 43 23 NO 976,4 2,5
11.12.2017 10:00:00 2,4 1,9 29 16 - - ONO 976,6 2,5
11.12.2017 09:00:00 2,6 2,1 28 15 40 21 ONO 977,4 3,5
11.12.2017 08:00:00 2,5 1,8 28 15 40 21 ONO 978,1 5
11.12.2017 07:00:00 2,6 1,7 26 14 - - O 979,3 6
11.12.2017 06:00:00 2,8 2,2 21 11 25 14 ONO 980,6 6
11.12.2017 05:00:00 3,6 2,9 11 6 18 10 O 981,7 10
11.12.2017 04:00:00 3,1 2,4 2 1 - - - 983,3 10
11.12.2017 03:00:00 2,3 1,3 11 6 14 8 ZZO 984,3 10
11.12.2017 02:00:00 2,7 1,4 5 3 11 6 O 983,2 10
11.12.2017 01:00:00 3,0 1,2 9 5 - - ZW 984,7 10
11.12.2017 00:00:00 2,7 1,3 11 6 18 10 WZW 983,7 10
10.12.2017 23:00:00 2,9 1,9 11 6 47 25 WNW 983,0 10
10.12.2017 22:00:00 5,6 3,7 34 18 - - WZW 981,6 10
10.12.2017 21:00:00 6,1 3,1 41 22 68 37 ZW 979,9 10
10.12.2017 20:00:00 6,6 4,1 42 23 72 39 ZW 978,7 10
10.12.2017 19:00:00 6,8 4,5 41 22 - - ZW 977,7 10
10.12.2017 18:00:00 7,1 4,2 48 26 76 41 ZW 977,0 10
10.12.2017 17:00:00 7,3 3,2 44 24 65 35 ZW 976,6 10
10.12.2017 16:00:00 7,3 2,7 41 22 - - ZW 976,8 9
10.12.2017 15:00:00 6,2 3,2 37 20 65 35 ZW 976,7 10
10.12.2017 14:00:00 4,6 3,0 37 20 50 27 ZZW 977,7 10
10.12.2017 13:00:00 2,6 1,4 31 17 - - ZZW 978,3 6
10.12.2017 12:00:00 0,9 -0,3 29 16 47 25 Z 979,8 4,0
10.12.2017 11:00:00 -0,2 -0,8 28 15 40 21 ZZO 981,5 0,7
10.12.2017 10:00:00 -0,1 -1,0 24 13 - - ZO 985,6 1,2
10.12.2017 09:00:00 -0,1 -0,8 24 13 40 21 ZZO 989,7 2,8
10.12.2017 08:00:00 0,4 -0,9 22 12 36 19 ZZO 993,1 3,5
10.12.2017 07:00:00 1,0 -0,4 21 11 - - ZZO 995,9 10
10.12.2017 06:00:00 1,2 -0,2 22 12 32 18 Z 998,6 10
10.12.2017 05:00:00 1,3 -0,3 16 9 36 19 Z 1001,2 10
10.12.2017 04:00:00 1,4 0,0 16 9 - - Z 1003,4 10
10.12.2017 03:00:00 1,3 -0,2 21 11 32 18 ZZW 1005,0 10
10.12.2017 02:00:00 1,0 -0,4 22 12 36 19 ZZW 1006,7 10
10.12.2017 01:00:00 0,9 -0,4 24 13 - - ZZW 1008,0 10
10.12.2017 00:00:00 0,8 -0,8 22 12 36 19 ZZW 1009,5 10
09.12.2017 23:00:00 0,6 -0,7 18 10 36 19 ZZW 1010,8 2,0
09.12.2017 22:00:00 0,5 -0,9 22 12 - - ZZW 1011,6 4,0
09.12.2017 21:00:00 0,3 -0,9 18 10 32 18 ZZW 1012,8 10
09.12.2017 20:00:00 0,7 -1,2 22 12 36 19 ZW 1013,5 8

tt = temperatuur
td = dauwpunt
ff = windsnelheid
fx = windstoten
dd = windrichting
ppp = luchtdruk
vv = zicht

Weerstations in de omgeving